Weather in Velikaya Kema

Russia / Primorsky Krai     45°28′32″N   137°10′22″E
temp.,
°C
wind,
m/s
gust,
m/s
humid.,
%
clouds,
%
prec.,
mm/h
press.,
hPa
HPBL,
m
10 may, mon
mon1001:00+4nne4792100 0.5 1002351
04:00+4ene2293100 0.5 1003102
07:00+4e2191100 0.0 1005168
10:00+7sse238077 0.0 1006473
13:00+8s447919 0.0 1007393
16:00+6s348699 0.0 1007252
19:00+6ene229193 0.0 1008136
22:00+5ne3697100 0.1 1012322
11 may, tue
tue1101:00+4ne3597100 1.4 1014476
04:00+4nnw2196100 3.4 1015295
07:00+4nw1195100 1.1 1017103
10:00+5ese1194100 1.3 1018366
13:00+5e119399 0.1 1019377
16:00+5ese219191 0.1 1019280
19:00+4sse228573 0.0 1020151
22:00+4sw119079 0.0 102235
12 may, wed
wed1201:00+3wsw129442 0.0 102224
04:00+4wsw119047 0.0 102114
07:00+5sw1189100 0.0 102274
10:00+8s4576100 0.0 1021488
13:00+8s6869100 0.0 1020593
16:00+7ssw5876100 0.0 1019483
19:00+6ssw4886100 0.0 1018368
22:00+4sw2496100 0.0 1018109
13 may, thu
thu1301:00+5wsw2494100 0.0 1016141
04:00+5sw3496100 1.6 1015104
07:00+6sw349250 0.0 1014121
10:00+11ssw457416 0.0 1013540
13:00+13s666542 0.0 1012304
16:00+11ssw4771100 0.0 1011265
19:00+9ssw348293 0.0 1011101
22:00+8wsw2387100 0.0 101130
14 may, fri
fri1401:00+8w2282100 0.0 101124
04:00+9wnw2278100 0.0 101120
07:00+10wsw12755 0.0 101145
10:00+14s335917 0.0 1010342
13:00+14s575517 0.0 1009368
16:00+13ssw51058100 0.0 1009375
19:00+10s3470100 0.0 100881
22:00+7s1280100 0.0 100855